Regional Weather Roundup
Issued by NWS Sterling, VA

Home | Current Version | Previous Version | Text Only | Print | Product List | Glossary Off
Versions: 1 2 3 4 5 6 7 8 9 10 11 12 13 14 15 16 17 18 19 20 21 22 23 24 25 26 27

000
ASUS41 KLWX 281511
RWRLWX

REGIONAL WEATHER ROUNDUP
NATIONAL WEATHER SERVICE BALTIMORE MD/WASHINGTON DC
1100 AM EDT FRI APR 28 2017

Note: "FAIR" indicates few or no clouds below 12,000 feet
with no significant weather and/or obstructions to visibility.
 TC=TEMPERATURE CELSIUS

 * =Non NWS site. Station does not report precipitation (e.g. rain,
    snow, etc.), thunder, or fog.

DCZ001-MDZ009-015-VAZ040>042-051-053>054-281600-
WASHINGTON METRO

CITY           SKY/WX    TMP DP  RH WIND       PRES   REMARKS
WASHINGTON NAT MOSUNNY   77  60  55 NE7       30.04R
DULLES         MOSUNNY   76  58  53 W6        30.05R
ANDREWS AFB    SUNNY     77  58  53 W5        30.04R
FT BELVOIR     SUNNY     78  58  50 CALM      30.04R
QUANTICO       MOSUNNY   75  64  68 E5        30.06R
COLLEGE PARK*  SUNNY     76  58  52 W5        30.04R
LEESBURG*      SUNNY     75  61  60 CALM      30.07R
MANASSAS*        N/A     76  59  55 SW5       30.06R

$$

MDZ006>007-011-014-281600-
BALTIMORE METRO

CITY           SKY/WX    TMP DP  RH WIND       PRES   REMARKS
BWI AIRPORT    MOSUNNY   77  58  51 W10       30.03R
MD SCIENCE CTR   N/A     79  56  45 MISG      30.03R
MARTIN STATE   SUNNY     79  59  50 W6        30.04R
ANNAPOLIS      SUNNY     76  59  55 N5        30.03R
FORT MEADE*    SUNNY     77  57  50 NW5       30.06R

$$

MDZ012-015-019>023-281600-
MARYLAND EASTERN SHORE

CITY           SKY/WX    TMP DP  RH WIND       PRES   REMARKS
OCEAN CITY     CLOUDY    71  65  81 S8        30.05R
SALISBURY      MOSUNNY   76  65  68 CALM      30.04R
BAY BRIDGE AP* SUNNY     75  59  57 W6        30.04R
CAMBRIDGE*     SUNNY     77  63  61 CALM      30.05R
EASTON*        SUNNY     79  59  50 N3        30.07S

$$

MDZ017>025-281600-
SOUTHERN MARYLAND

CITY           SKY/WX    TMP DP  RH WIND       PRES   REMARKS
PATUXENT RIVER MOSUNNY   77  64  64 E7        30.04R
ST INIGOES     SUNNY     75  66  73 SW6       30.04R
LEONARDTOWN*   MOSUNNY   75  61  60 N3        30.06R

$$

MDZ003>005-281600-
NORTH CENTRAL MARYLAND

CITY           SKY/WX    TMP DP  RH WIND       PRES   REMARKS
FREDERICK*     SUNNY     75  61  60 W7        30.07R
HAGERSTOWN APT SUNNY     72  53  51 W8        30.06R
WESTMINSTER*   SUNNY     73  52  46 W10       30.06R

$$

MDZ501>502-281600-
WESTERN MARYLAND

CITY           SKY/WX    TMP DP  RH WIND       PRES   REMARKS
OAKLAND*       SUNNY     61  46  59 SW7       30.10F
CUMBERLAND*    SUNNY     72  54  53 E6        30.09F

$$

VAZ025>031-281600-
SHENANDOAH VALLEY

CITY           SKY/WX    TMP DP  RH WIND       PRES   REMARKS
WINCHESTER*    SUNNY     70  57  64 SE3       30.06R
FRONT ROYAL*   SUNNY     75  61  60 S5        30.04S
LURAY*         SUNNY     73  59  60 CALM      30.05S
NEW MARKET*    SUNNY     73  57  57 SE5       30.04F
STAUNTON*      SUNNY     70  58  67 S3        30.09R
WAYNESBORO*    SUNNY     71  61  71 CALM      30.08R

$$

WVZ021-048>050-054>055-281600-
EASTERN WEST VIRGINIA PANHANDLE

CITY           SKY/WX    TMP DP  RH WIND       PRES   REMARKS
MARTINSBURG    SUNNY     73  55  53 CALM      30.05R
PETERSBURG*    SUNNY     72  59  63 E3        30.05F

$$

VAZ036>039-050-281600-
CENTRAL FOOTHILLS

CITY           SKY/WX    TMP DP  RH WIND       PRES   REMARKS
CHARLOTTESVILL SUNNY     78  61  55 SE6       30.05R
CULPEPER*      SUNNY     77  62  61 E3        30.06R
ORANGE*        SUNNY     77  61  57 CALM      30.05R
GORDONSVILLE*  SUNNY     78  60  55 CALM      30.05R
WARRENTON*     SUNNY     78  53  42 CALM      30.06R

$$

VAZ055>057-281600-
NORTH AND CENTRAL PIEDMONT

CITY           SKY/WX    TMP DP  RH WIND       PRES   REMARKS
FREDERICKSBRG* SUNNY     78  61  55 E5        30.04R
STAFFORD*      SUNNY     76  61  59 CALM      30.09R

$$

NCZ024-NYZ072-PAZ021-071-VAZ022-071-281600-
OTHER REGIONAL OBSERVATIONS

CITY           SKY/WX    TMP DP  RH WIND       PRES   REMARKS
NEW YORK CITY  SUNNY     70  61  73 CALM      30.01S HAZE
PHILADELPHIA   SUNNY     78  59  51 S9        30.01R
PITTSBURGH     PTSUNNY   60  48  64 VRB3      30.06F
ROANOKE        MOSUNNY   69  61  75 CALM      30.10R HAZE
RICHMOND       MOSUNNY   76  68  76 SW5       30.05R
RALEIGH        MOSUNNY   79  68  69 SW6       30.07S

$$

ANZ530>537-281600-
MARINE OBSERVATIONS

STATION/POSITION TIME  TEMP    WIND        PRES
                       AIR SEA DIR/SP/G
                 (UTC) (F)     (DEG/KT/KT) (MB)
THOMAS PT LIGHT  1500   70 60  150/  2/  2   N/A
BALT KEY BRIDGE  1448   74     280/  5/  7 1016.9R
COVE POINT       1448   67     160/  5/  7 1018.1R
LEWISETTA        1448   70 66  100/  3/  3 1017.2R
SOLOMONS ISLAND  1448   75 62  240/  3/  4   N/A
PINEY POINT      1448          310/  2/  2   N/A

$$





USA.gov is the U.S. government's official web portal to all federal, state and local government web resources and services.